Home > Weather > Spa > Past weeks

Flag for Belgium Weather for the Past 2 Weeks in Spa, Belgium

Now
32 °F

Overcast.


Feels Like: 27 °F
Forecast: 30 / 42 °F
Wind: 5 mph from Southwest

Location: Elsenborn

Current Time: Feb 12, 2016 at 4:52:27 AM

Latest Report: Feb 12, 2016 at 3:55 AM


Visibility: N/A

Pressure: 29.59 "Hg

Humidity: 93%

Dew point: 30 °F

Location of SpaLocation

Historic Weather in Spa — Graph

°F

Spa Temperature Yesterday

Maximum temperature yesterday: 36 °F (at 10:25 AM)
Minimum temperature yesterday: 32 °F (at 5:55 PM)
Average temperature yesterday: 34 °F

High & Low Weather Summary for the Past Weeks

 TemperatureHumidityPressure
High48 °F (Jan 31, 9:55 PM)100% (Jan 28, 4:25 AM)30.30 "Hg (Jan 28, 4:25 AM)
Low30 °F (Jan 28, 6:55 PM)66% (Jan 28, 1:25 PM)28.85 "Hg (Feb 9, 2:55 PM)
Average38 °F91%29.82 "Hg
* Reported Jan 28 3:25 AM — Feb 12 3:25 AM, Spa, Weather by CustomWeather, © 2016

Note: Actual official high and low records may vary slightly from our data, if they occured in-between our weather recording intervals... More about our weather records

Advertising

Spa Weather History for the Previous 24 Hours

 ConditionsComfort  
Time TempWeatherWind HumidityBarometerVisibility
3:25 AM
Fri, Feb 12
32 °FOvercast.6 mph93%29.59 "HgN/A
2:55 AM32 °FLow clouds.6 mph93%29.59 "HgN/A
2:25 AM32 °FLow clouds.7 mph93%29.62 "HgN/A
1:55 AM32 °FLow clouds.6 mph93%29.62 "HgN/A
1:25 AM32 °FLow clouds.7 mph93%29.62 "HgN/A
12:55 AM32 °FLow clouds.5 mph93%29.62 "HgN/A
12:25 AM32 °FLow clouds.7 mph93%29.62 "HgN/A
11:55 PM
Thu, Feb 11
32 °FLow clouds.8 mph100%29.62 "HgN/A
10:25 PM32 °FMostly cloudy.5 mph93%29.65 "Hg6 mi
9:55 PM32 °FLight snow. Mostly cloudy.7 mph100%29.65 "Hg2 mi
9:25 PM32 °FPassing clouds.6 mph100%29.65 "Hg5 mi
8:55 PM32 °FPassing clouds.6 mph100%29.65 "Hg5 mi
8:25 PM32 °FMostly cloudy.6 mph100%29.65 "HgN/A
7:55 PM32 °FLight rain. Mostly cloudy.5 mph100%29.65 "HgN/A
7:25 PM32 °FLight snow. Low clouds.6 mph100%29.65 "Hg2 mi
7:04 PM32 °FLight snow. Mostly cloudy.5 mph100%29.65 "Hg1 mi
6:52 PM32 °FPartly cloudy.5 mph100%29.65 "Hg5 mi
6:25 PM32 °FLight rain. Passing clouds.5 mph100%29.65 "Hg3 mi
6:03 PM32 °FLight rain. Passing clouds.3 mph100%29.65 "HgN/A
5:55 PM32 °FLight snow. Passing clouds.2 mph100%29.65 "Hg6 mi
5:25 PM34 °FLight rain. Mostly cloudy.7 mph93%29.65 "HgN/A
4:55 PM34 °FLow clouds.5 mph93%29.65 "HgN/A
4:25 PM34 °FPartly sunny.7 mph93%29.65 "HgN/A
3:55 PM36 °FPartly sunny.5 mph87%29.62 "HgN/A
3:25 PM36 °FMostly cloudy.6 mph93%29.62 "HgN/A
2:55 PM34 °FLight rain. Low clouds.6 mph93%29.62 "HgN/A
2:25 PM36 °FLow clouds.8 mph87%29.62 "HgN/A
1:55 PM36 °FPartly sunny.7 mph93%29.65 "HgN/A
1:25 PM36 °FPartly sunny.8 mph87%29.65 "HgN/A
12:55 PM36 °FBroken clouds.8 mph87%29.65 "HgN/A
12:25 PM36 °FPartly sunny.7 mph93%29.65 "HgN/A
11:55 AM36 °FPartly sunny.7 mph87%29.65 "HgN/A
11:25 AM36 °FPartly sunny.7 mph87%29.65 "HgN/A
10:55 AM36 °FPartly sunny.8 mph87%29.65 "HgN/A
10:25 AM36 °FPartly sunny.8 mph87%29.65 "HgN/A
9:55 AM34 °FPartly sunny.8 mph93%29.65 "HgN/A
9:25 AM34 °FPartly sunny.8 mph93%29.65 "HgN/A
8:55 AM34 °FPartly sunny.8 mph93%29.62 "HgN/A
8:25 AM34 °FPartly sunny.6 mph93%29.62 "Hg4 mi
7:55 AM34 °FPartly sunny.7 mph93%29.62 "Hg6 mi
7:25 AM34 °FLow clouds.7 mph93%29.62 "HgN/A
6:55 AM34 °FLow clouds.7 mph93%29.62 "Hg4 mi
6:25 AM34 °FFog.7 mph93%29.62 "Hg1 mi
5:55 AM34 °FLight snow. Low clouds.7 mph93%29.62 "Hg4 mi
5:25 AM34 °FLow clouds.9 mph93%29.62 "Hg5 mi
4:55 AM34 °FPassing clouds.8 mph93%29.62 "HgN/A
4:25 AM34 °FLow clouds.7 mph93%29.59 "Hg4 mi
Weather by CustomWeather, © 2016

See weather overviewHow to use our weather pages